Location: Rowland
(34.5359°N, 79.2929°W)
Time: 12:15:28
(UTC+00:00)

Transit 2A Rocket - Visible Passes

Search period start: 05 October 2022 00:00
Search period end: 15 October 2022 00:00
Orbit: 593 x 908 km, 66.7° (Epoch: 05 October)

Date Brightness Start Highest point End Pass type
(mag) Time Alt. Az. Time Alt. Az. Time Alt. Az.
05 Oct 7.1 08:59:27 10° SSE 09:02:23 18° ESE 09:05:18 10° ENE visible
05 Oct 5.3 10:40:42 10° WSW 10:44:36 32° WNW 10:48:29 10° N visible
06 Oct 4.4 09:58:46 20° SW 10:01:38 66° WNW 10:05:55 10° NNE visible
07 Oct 4.9 09:18:10 52° SSE 09:18:47 58° ESE 09:23:01 10° NE visible
08 Oct 6.7 08:37:22 23° E 08:37:22 23° E 08:39:40 10° NE visible
08 Oct 5.8 10:17:18 20° WNW 10:18:28 22° NW 10:21:51 10° N visible
09 Oct 5.2 09:36:18 37° NNW 09:36:18 37° NNW 09:39:32 10° NNE visible
10 Oct 6.5 08:55:11 23° NNE 08:55:11 23° NNE 08:56:49 10° NNE visible
11 Oct 6.6 09:53:51 13° NNW 09:53:51 13° NNW 09:54:56 10° NNW visible
12 Oct 7.0 09:12:31 12° N 09:12:31 12° N 09:12:59 10° N visible
